• In Austria
  • List of Countries
  • For 7 days
  • Water Temperature
  • Satellite Maps
  • Weather Map
  • News
  • Weather Widgets
  • user-avatar
    Login

    Hourly Weather Kleszczewo

    Today, 16 July, Monday

    Time Temperature Precipitation Wind Pressure Humidity
    00:00 +17°C° 0 mm 2 mps 754 mmHg 89%
    01:00 +16°C° 0 mm 1 mps 753 mmHg 92%
    02:00 +16°C° 0 mm 1 mps 753 mmHg 93%
    03:00 +16°C° 0 mm 1 mps 753 mmHg 93%
    04:00 +15°C° 0 mm 1 mps 753 mmHg 93%
    05:00 +18°C° 0 mm 1 mps 753 mmHg 86%
    06:00 +19°C° 0 mm 1 mps 753 mmHg 79%
    07:00 +21°C° 0 mm 1 mps 753 mmHg 71%
    08:00 +23°C° 0 mm 2 mps 753 mmHg 63%
    09:00 +24°C° 0 mm 2 mps 752 mmHg 56%
    10:00 +26°C° 0 mm 2 mps 752 mmHg 49%
    11:00 +27°C° 0 mm 2 mps 752 mmHg 46%
    12:00 +28°C° 0 mm 2 mps 752 mmHg 43%
    13:00 +29°C° 0 mm 2 mps 751 mmHg 40%
    14:00 +29°C° 0 mm 2 mps 751 mmHg 41%
    15:00 +29°C° 0 mm 2 mps 751 mmHg 42%
    16:00 +29°C° 0 mm 2 mps 751 mmHg 43%
    17:00 +28°C° 0.3 mm 2 mps 750 mmHg 50%
    18:00 +26°C° 0.3 mm 3 mps 750 mmHg 57%
    19:00 +25°C° 0.3 mm 3 mps 750 mmHg 65%
    20:00 +22°C° 0.3 mm 3 mps 750 mmHg 72%
    21:00 +21°C° 0.3 mm 2 mps 750 mmHg 79%
    22:00 +19°C° 0.3 mm 2 mps 750 mmHg 86%
    23:00 +19°C° 0.1 mm 2 mps 750 mmHg 88%

    Tomorrow, 17 July, Tuesday

    Time Temperature Precipitation Wind Pressure Humidity
    00:00 +18°C° 0.1 mm 2 mps 750 mmHg 90%
    01:00 +18°C° 0.1 mm 2 mps 750 mmHg 91%
    02:00 +18°C° 0.2 mm 2 mps 750 mmHg 92%
    03:00 +18°C° 0.2 mm 3 mps 750 mmHg 92%
    04:00 +18°C° 0.2 mm 3 mps 750 mmHg 92%
    05:00 +18°C° 0.8 mm 3 mps 750 mmHg 91%
    06:00 +18°C° 0.8 mm 3 mps 749 mmHg 90%
    07:00 +18°C° 0.8 mm 4 mps 749 mmHg 88%
    08:00 +18°C° 1.1 mm 4 mps 749 mmHg 89%
    09:00 +18°C° 1.1 mm 4 mps 749 mmHg 89%
    10:00 +18°C° 1.1 mm 4 mps 750 mmHg 89%
    11:00 +17°C° 1.3 mm 5 mps 749 mmHg 89%
    12:00 +17°C° 1.3 mm 5 mps 749 mmHg 90%
    13:00 +17°C° 1.3 mm 5 mps 749 mmHg 90%
    14:00 +17°C° 0.3 mm 5 mps 749 mmHg 89%
    15:00 +19°C° 0.3 mm 5 mps 749 mmHg 88%
    16:00 +19°C° 0.3 mm 5 mps 749 mmHg 87%
    17:00 +19°C° 0.1 mm 5 mps 749 mmHg 88%
    18:00 +19°C° 0.1 mm 4 mps 749 mmHg 90%
    19:00 +19°C° 0.1 mm 4 mps 749 mmHg 91%
    20:00 +18°C° 0.2 mm 4 mps 749 mmHg 92%
    21:00 +18°C° 0.2 mm 4 mps 749 mmHg 93%
    22:00 +18°C° 0.2 mm 4 mps 749 mmHg 94%
    23:00 +18°C° 0.1 mm 4 mps 749 mmHg 95%

    Day after tomorrow, 18 July, Wednesday

    Time Temperature Precipitation Wind Pressure Humidity
    00:00 +18°C° 0.1 mm 4 mps 749 mmHg 95%
    01:00 +18°C° 0.1 mm 4 mps 749 mmHg 95%
    02:00 +18°C° 0 mm 4 mps 749 mmHg 95%
    03:00 +18°C° 0 mm 4 mps 749 mmHg 95%
    04:00 +18°C° 0 mm 4 mps 749 mmHg 95%
    05:00 +17°C° 0 mm 5 mps 749 mmHg 93%
    06:00 +19°C° 0 mm 5 mps 749 mmHg 90%
    07:00 +19°C° 0 mm 6 mps 749 mmHg 88%
    08:00 +20°C° 0.1 mm 6 mps 749 mmHg 82%
    09:00 +21°C° 0.1 mm 6 mps 749 mmHg 77%
    10:00 +22°C° 0.1 mm 6 mps 750 mmHg 72%
    11:00 +23°C° 0.1 mm 7 mps 750 mmHg 67%
    12:00 +24°C° 0.1 mm 7 mps 750 mmHg 63%
    13:00 +26°C° 0.1 mm 7 mps 750 mmHg 58%
    14:00 +26°C° 0.1 mm 7 mps 750 mmHg 59%
    15:00 +26°C° 0.1 mm 6 mps 750 mmHg 59%
    16:00 +26°C° 0.1 mm 6 mps 750 mmHg 60%
    17:00 +25°C° 0.1 mm 5 mps 750 mmHg 65%
    18:00 +23°C° 0.1 mm 5 mps 751 mmHg 70%
    19:00 +22°C° 0.1 mm 4 mps 751 mmHg 74%
    20:00 +21°C° 0 mm 3 mps 751 mmHg 77%
    21:00 +20°C° 0 mm 3 mps 751 mmHg 80%
    22:00 +19°C° 0 mm 3 mps 751 mmHg 83%
    23:00 +19°C° 0.1 mm 3 mps 751 mmHg 84%

    19 July, Thursday

    Time Temperature Precipitation Wind Pressure Humidity
    00:00 +19°C° 0.1 mm 3 mps 751 mmHg 86%
    01:00 +18°C° 0.1 mm 3 mps 751 mmHg 88%
    02:00 +18°C° 0.1 mm 3 mps 751 mmHg 89%
    03:00 +17°C° 0.1 mm 3 mps 751 mmHg 90%
    04:00 +17°C° 0.1 mm 3 mps 751 mmHg 90%
    05:00 +18°C° 0.1 mm 4 mps 752 mmHg 87%
    06:00 +19°C° 0.1 mm 4 mps 752 mmHg 83%
    07:00 +20°C° 0.1 mm 5 mps 752 mmHg 79%
    08:00 +21°C° 0.1 mm 5 mps 752 mmHg 74%
    09:00 +22°C° 0.1 mm 5 mps 752 mmHg 69%
    10:00 +23°C° 0.1 mm 5 mps 752 mmHg 64%
    11:00 +25°C° 0 mm 5 mps 752 mmHg 61%
    12:00 +26°C° 0 mm 5 mps 752 mmHg 57%
    13:00 +27°C° 0 mm 5 mps 752 mmHg 53%
    14:00 +27°C° 0 mm 5 mps 752 mmHg 53%
    15:00 +26°C° 0 mm 5 mps 752 mmHg 53%
    16:00 +26°C° 0 mm 5 mps 752 mmHg 53%
    17:00 +25°C° 0 mm 5 mps 752 mmHg 57%
    18:00 +23°C° 0 mm 4 mps 752 mmHg 60%
    19:00 +21°C° 0 mm 3 mps 752 mmHg 64%
    20:00 +20°C° 0 mm 3 mps 752 mmHg 66%
    21:00 +19°C° 0 mm 3 mps 752 mmHg 68%
    22:00 +18°C° 0 mm 2 mps 753 mmHg 70%
    23:00 +17°C° 0 mm 2 mps 753 mmHg 71%

    20 July, Friday

    Time Temperature Precipitation Wind Pressure Humidity
    00:00 +17°C° 0 mm 2 mps 753 mmHg 73%
    01:00 +16°C° 0 mm 2 mps 752 mmHg 74%
    02:00 +16°C° 0 mm 2 mps 752 mmHg 76%
    03:00 +15°C° 0 mm 2 mps 752 mmHg 78%
    04:00 +15°C° 0 mm 2 mps 752 mmHg 79%
    05:00 +16°C° 0 mm 2 mps 752 mmHg 76%
    06:00 +17°C° 0 mm 3 mps 752 mmHg 72%
    07:00 +19°C° 0 mm 3 mps 752 mmHg 68%
    08:00 +20°C° 0 mm 3 mps 752 mmHg 61%
    09:00 +22°C° 0 mm 3 mps 752 mmHg 55%
    10:00 +25°C° 0 mm 3 mps 752 mmHg 48%
    11:00 +26°C° 0 mm 3 mps 752 mmHg 45%
    12:00 +26°C° 0 mm 3 mps 752 mmHg 42%
    13:00 +27°C° 0 mm 3 mps 752 mmHg 40%
    14:00 +27°C° 0 mm 3 mps 752 mmHg 40%
    15:00 +27°C° 0 mm 3 mps 751 mmHg 40%
    16:00 +27°C° 0 mm 3 mps 751 mmHg 40%
    17:00 +26°C° 0 mm 3 mps 751 mmHg 45%
    18:00 +25°C° 0 mm 2 mps 751 mmHg 51%
    19:00 +24°C° 0 mm 2 mps 751 mmHg 57%
    20:00 +21°C° 0 mm 2 mps 751 mmHg 62%
    21:00 +19°C° 0 mm 2 mps 751 mmHg 68%
    22:00 +18°C° 0 mm 2 mps 751 mmHg 73%
    23:00 +17°C° 0 mm 2 mps 751 mmHg 74%

    21 July, Saturday

    Time Temperature Precipitation Wind Pressure Humidity
    00:00 +16°C° 0 mm 1 mps 751 mmHg 76%
    01:00 +16°C° 0 mm 1 mps 751 mmHg 77%
    02:00 +15°C° 0 mm 1 mps 751 mmHg 77%
    03:00 +15°C° 0 mm 1 mps 751 mmHg 78%
    04:00 +14°C° 0 mm 1 mps 750 mmHg 79%
    05:00 +16°C° 0 mm 1 mps 751 mmHg 73%
    06:00 +19°C° 0 mm 1 mps 751 mmHg 67%
    07:00 +20°C° 0 mm 1 mps 751 mmHg 61%
    08:00 +22°C° 0 mm 1 mps 751 mmHg 56%
    09:00 +24°C° 0 mm 1 mps 751 mmHg 50%
    10:00 +25°C° 0 mm 1 mps 751 mmHg 45%
    11:00 +26°C° 0 mm 1 mps 750 mmHg 43%
    12:00 +27°C° 0 mm 2 mps 750 mmHg 40%
    13:00 +27°C° 0 mm 2 mps 750 mmHg 37%
    14:00 +27°C° 0 mm 2 mps 750 mmHg 37%
    15:00 +28°C° 0 mm 2 mps 750 mmHg 37%
    16:00 +28°C° 0 mm 2 mps 749 mmHg 36%
    17:00 +27°C° 0 mm 2 mps 749 mmHg 42%
    18:00 +25°C° 0 mm 2 mps 749 mmHg 48%
    19:00 +24°C° 0 mm 2 mps 749 mmHg 54%
    20:00 +23°C° 0 mm 2 mps 750 mmHg 60%
    21:00 +20°C° 0 mm 2 mps 750 mmHg 65%
    22:00 +19°C° 0 mm 2 mps 750 mmHg 70%
    23:00 +18°C° 0 mm 2 mps 750 mmHg 72%
    Show more